M I D A S
Marine Information and Data Acquisition System
Tripno 965 of the Zeeleeuw from 2005-10-03 08:26:36 to 2005-10-03 16:56:54
Back to CruiseResearch ActivitiesStationsMapUnderway DataData graphs

EquipmentUnitsComments
TimeDGPSUTC
LatitudeDGPSDM.mWGS84
LongitudeDGPSDM.mWGS84
SpeedMeteo Stationm/sRelative wind speed
DirectionMeteo StationdegRelative wind direction
TemperatureMeteo Stationdeg CelciusAir temperature
PressureMeteo StationPaAtmospheric pressure
HumidityMeteo Station%Relative humidity
Missing or incorrect values are displayed as -999
Metereological data collected by the RV Zeeleeuw from 2005-10-03 08:24:20 to 2005-10-03 16:57:11
Time Latitude Longitude Speed Direction Temperature Pressure Humidity
2005-10-03 08:25 51°13.616 2°56.045 -999 221 13.4 102950 87
2005-10-03 08:26 51°13.635 2°55.959 -999 213 13.3 102950 87
2005-10-03 08:27 51°13.672 2°55.863 -999 208 13.4 102950 87
2005-10-03 08:28 51°13.704 2°55.761 -999 228 13.4 102950 87
2005-10-03 08:29 51°13.709 2°55.749 -999 269 13.4 102950 87
2005-10-03 08:30 51°13.718 2°55.739 -999 346 13.4 102950 87
2005-10-03 08:31 51°13.792 2°55.672 -999 17 13.4 102940 88
2005-10-03 08:32 51°13.907 2°55.578 -999 13 13.4 102940 87
2005-10-03 08:33 51°14.037 2°55.484 -999 16 13.5 102940 88
2005-10-03 08:34 51°14.179 2°55.371 -999 16 13.4 102940 88
2005-10-03 08:35 51°14.3 2°55.187 -999 32 13.4 102940 88
2005-10-03 08:36 51°14.416 2°54.96 -999 22 13.2 102930 88
2005-10-03 08:37 51°14.569 2°54.783 -999 15 13.1 102930 88
2005-10-03 08:38 51°14.753 2°54.625 -999 17 13.1 102930 86
2005-10-03 08:39 51°14.944 2°54.492 -999 12 13 102940 85
2005-10-03 08:40 51°15.136 2°54.376 -999 10 13 102940 86
2005-10-03 08:41 51°15.328 2°54.258 -999 8 12.8 102950 86
2005-10-03 08:42 51°15.521 2°54.137 -999 11 12.7 102950 86
2005-10-03 08:43 51°15.713 2°54.009 -999 10 12.7 102950 87
2005-10-03 08:44 51°15.898 2°53.883 -999 14 12.6 102950 87
2005-10-03 08:45 51°16.089 2°53.751 -999 14 12.6 102950 88
2005-10-03 08:46 51°16.282 2°53.644 -999 11 12.5 102960 88
2005-10-03 08:47 51°16.475 2°53.541 -999 14 12.5 102950 88
2005-10-03 08:48 51°16.669 2°53.444 -999 15 12.6 102940 88
2005-10-03 08:49 51°16.864 2°53.345 -999 13 12.6 102940 88
2005-10-03 08:50 51°17.053 2°53.259 -999 14 12.6 102950 88
2005-10-03 08:51 51°17.245 2°53.192 -999 12 12.7 102950 88
2005-10-03 08:52 51°17.43 2°53.256 -999 8 12.7 102950 88
2005-10-03 08:53 51°17.592 2°53.415 -999 6 12.7 102950 89
2005-10-03 08:54 51°17.754 2°53.589 -999 13 12.8 102940 89
2005-10-03 08:55 51°17.917 2°53.745 -999 8 12.8 102940 89
2005-10-03 08:56 51°18.079 2°53.891 -999 5 12.8 102940 89
2005-10-03 08:57 51°18.247 2°54.041 -999 4 12.9 102950 89
2005-10-03 08:58 51°18.407 2°54.185 -999 7 12.9 102950 89
2005-10-03 08:59 51°18.569 2°54.346 -999 7 12.9 102950 88
2005-10-03 09:00 51°18.728 2°54.503 -999 3 12.9 102950 88
2005-10-03 09:01 51°18.886 2°54.664 -999 1 12.9 102950 88
2005-10-03 09:02 51°19.04 2°54.831 -999 6 12.9 102950 89
2005-10-03 09:03 51°19.195 2°54.992 -999 -999 13 102950 89
2005-10-03 09:04 51°19.356 2°55.158 -999 7 13 102940 89
2005-10-03 09:05 51°19.46 2°55.408 -999 7 13 102950 89
2005-10-03 09:06 51°19.563 2°55.66 -999 10 13.1 102940 88
2005-10-03 09:07 51°19.669 2°55.909 -999 6 13.1 102950 88
2005-10-03 09:08 51°19.778 2°56.157 -999 359 13.1 102940 87
2005-10-03 09:09 51°19.889 2°56.401 -999 358 13.1 102940 87
2005-10-03 09:10 51°19.994 2°56.653 -999 358 13.1 102950 87
2005-10-03 09:11 51°20.1 2°56.904 -999 350 13.1 102950 86
2005-10-03 09:12 51°20.207 2°57.146 -999 349 13.2 102940 86
2005-10-03 09:13 51°20.32 2°57.396 -999 351 13.2 102940 86
2005-10-03 09:14 51°20.426 2°57.65 -999 343 13.3 102940 85
2005-10-03 09:15 51°20.529 2°57.908 -999 348 13.4 102940 85
2005-10-03 09:16 51°20.632 2°58.169 -999 349 13.4 102940 85
2005-10-03 09:17 51°20.736 2°58.433 -999 347 13.5 102940 85
2005-10-03 09:18 51°20.839 2°58.698 -999 349 13.5 102940 84
2005-10-03 09:19 51°20.93 2°58.975 -999 344 13.5 102940 84
2005-10-03 09:20 51°21.02 2°59.253 -999 354 13.5 102940 84
2005-10-03 09:21 51°21.112 2°59.532 -999 351 13.5 102930 85
2005-10-03 09:22 51°21.208 2°59.808 -999 352 13.5 102930 85
2005-10-03 09:23 51°21.372 2°59.972 -999 359 13.5 102940 85
2005-10-03 09:24 51°21.544 3°0.13 -999 357 13.5 102940 85
2005-10-03 09:25 51°21.716 3°0.286 -999 356 13.5 102940 86
2005-10-03 09:26 51°21.888 3°0.446 -999 5 13.5 102950 85
2005-10-03 09:27 51°22.064 3°0.596 -999 6 13.4 102950 85
2005-10-03 09:28 51°22.237 3°0.749 -999 5 13.4 102950 86
2005-10-03 09:29 51°22.41 3°0.904 -999 4 13.3 102950 86
2005-10-03 09:30 51°22.583 3°1.062 -999 4 13.3 102950 86
2005-10-03 09:31 51°22.757 3°1.224 -999 9 13.4 102950 85
2005-10-03 09:32 51°22.931 3°1.383 -999 6 13.4 102950 84
2005-10-03 09:33 51°23.104 3°1.544 -999 2 13.4 102950 84
2005-10-03 09:34 51°23.276 3°1.705 -999 6 13.4 102950 83
2005-10-03 09:35 51°23.449 3°1.866 -999 4 13.5 102960 82
2005-10-03 09:36 51°23.623 3°2.028 -999 7 13.5 102950 82
2005-10-03 09:37 51°23.797 3°2.19 -999 4 13.5 102960 82
2005-10-03 09:38 51°23.97 3°2.351 -999 3 13.5 102960 82
2005-10-03 09:39 51°24.144 3°2.516 -999 6 13.5 102960 82
2005-10-03 09:40 51°24.316 3°2.682 -999 5 13.5 102950 82
2005-10-03 09:41 51°24.492 3°2.838 -999 9 13.5 102950 83
2005-10-03 09:42 51°24.668 3°3.001 -999 16 13.5 102960 83
2005-10-03 09:43 51°24.84 3°3.161 -999 13 13.5 102960 83
2005-10-03 09:44 51°25.009 3°3.326 -999 16 13.4 102950 82
2005-10-03 09:45 51°25.177 3°3.49 -999 15 13.4 102960 82
2005-10-03 09:46 51°25.336 3°3.672 -999 7 13.4 102950 81
2005-10-03 09:47 51°25.434 3°3.944 -999 12 13.5 102960 81
2005-10-03 09:48 51°25.518 3°4.227 -999 12 13.5 102960 81
2005-10-03 09:49 51°25.606 3°4.509 -999 12 13.4 102960 81
2005-10-03 09:50 51°25.69 3°4.795 -999 9 13.4 102970 82
2005-10-03 09:51 51°25.78 3°5.077 -999 12 13.4 102970 82
2005-10-03 09:52 51°25.869 3°5.358 -999 13 13.5 102960 82
2005-10-03 09:53 51°25.949 3°5.647 -999 14 13.4 102960 82
2005-10-03 09:54 51°26.032 3°5.932 -999 14 13.5 102960 82
2005-10-03 09:55 51°26.107 3°6.224 -999 18 13.5 102950 83
2005-10-03 09:56 51°26.169 3°6.527 -999 18 13.5 102960 82
2005-10-03 09:57 51°26.233 3°6.833 -999 13 13.5 102960 82
2005-10-03 09:58 51°26.301 3°7.138 -999 13 13.5 102970 82
2005-10-03 09:59 51°26.365 3°7.445 -999 8 13.5 102960 82
2005-10-03 10:00 51°26.433 3°7.749 -999 4 13.5 102970 82
2005-10-03 10:01 51°26.496 3°8.06 -999 8 13.5 102970 82
2005-10-03 10:02 51°26.541 3°8.25 -999 8 13.5 102970 83
2005-10-03 10:03 51°26.571 3°8.352 -999 357 13.5 102960 82
2005-10-03 10:04 51°26.584 3°8.42 -999 356 13.6 102950 82
2005-10-03 10:05 51°26.591 3°8.484 -999 341 13.6 102960 82
2005-10-03 10:06 51°26.601 3°8.549 -999 339 13.6 102970 82
2005-10-03 10:07 51°26.615 3°8.613 -999 346 13.6 102960 82
2005-10-03 10:08 51°26.627 3°8.678 -999 347 13.6 102970 82
2005-10-03 10:09 51°26.634 3°8.748 -999 350 13.7 102970 82
2005-10-03 10:10 51°26.643 3°8.816 -999 344 13.7 102960 82
2005-10-03 10:11 51°26.656 3°8.881 -999 353 13.7 102970 82
2005-10-03 10:12 51°26.671 3°8.938 -999 349 13.7 102960 82
2005-10-03 10:13 51°26.689 3°8.993 -999 335 13.7 102960 82
2005-10-03 10:14 51°26.706 3°9.046 -999 338 13.8 102960 82
2005-10-03 10:15 51°26.725 3°9.101 -999 346 13.8 102960 82
2005-10-03 10:16 51°26.743 3°9.157 -999 354 13.8 102960 81
2005-10-03 10:17 51°26.764 3°9.211 -999 346 13.8 102970 81
2005-10-03 10:18 51°26.784 3°9.263 -999 355 13.8 102970 81
2005-10-03 10:19 51°26.805 3°9.315 -999 -999 13.8 102970 80
2005-10-03 10:20 51°26.824 3°9.367 -999 13 13.9 102980 80
2005-10-03 10:21 51°26.846 3°9.417 -999 8 13.9 102980 79
2005-10-03 10:22 51°26.87 3°9.469 -999 3 13.9 102970 79
2005-10-03 10:23 51°26.897 3°9.519 -999 11 14 102970 79
2005-10-03 10:24 51°26.923 3°9.568 -999 5 14 102980 78
2005-10-03 10:25 51°26.949 3°9.619 -999 3 14 102970 79
2005-10-03 10:26 51°26.974 3°9.669 -999 359 14.1 102980 78
2005-10-03 10:27 51°27.001 3°9.72 -999 13 14.1 102980 77
2005-10-03 10:28 51°27.026 3°9.773 -999 25 14.1 102980 74
2005-10-03 10:29 51°27.053 3°9.825 -999 30 14.1 102980 72
2005-10-03 10:30 51°27.079 3°9.878 -999 26 14.3 102980 73
2005-10-03 10:31 51°27.105 3°9.932 -999 19 14.3 102970 72
2005-10-03 10:32 51°27.132 3°9.985 -999 28 14.3 102970 72
2005-10-03 10:33 51°27.158 3°10.039 -999 15 14.3 102980 72
2005-10-03 10:34 51°27.184 3°10.094 -999 15 14.3 102980 73
2005-10-03 10:35 51°27.21 3°10.149 -999 31 14.3 102970 73
2005-10-03 10:36 51°27.238 3°10.203 -999 37 14.3 102980 73
2005-10-03 10:37 51°27.266 3°10.258 -999 27 14.3 102970 73
2005-10-03 10:38 51°27.293 3°10.313 -999 28 14.3 102970 74
2005-10-03 10:39 51°27.32 3°10.37 -999 32 14.3 102980 74
2005-10-03 10:40 51°27.347 3°10.425 -999 24 14.3 102970 75
2005-10-03 10:41 51°27.373 3°10.483 -999 32 14.3 102980 74
2005-10-03 10:42 51°27.399 3°10.542 -999 30 14.3 102980 75
2005-10-03 10:43 51°27.426 3°10.598 -999 30 14.2 102980 75
2005-10-03 10:44 51°27.446 3°10.646 -999 26 14.2 102980 74
2005-10-03 10:45 51°27.457 3°10.684 -999 22 14.2 102980 74
2005-10-03 10:46 51°27.458 3°10.753 -999 342 14.2 102980 74
2005-10-03 10:47 51°27.402 3°10.823 -999 268 14.3 102980 74
2005-10-03 10:48 51°27.333 3°10.79 -999 139 14.3 102980 75
2005-10-03 10:49 51°27.289 3°10.74 -999 151 14.4 102990 75
2005-10-03 10:50 51°27.252 3°10.699 -999 141 14.4 102980 74
2005-10-03 10:51 51°27.216 3°10.662 -999 148 14.3 102990 73
2005-10-03 10:52 51°27.171 3°10.63 -999 168 14.3 102990 73
2005-10-03 10:53 51°27.119 3°10.608 -999 231 14.3 102980 73
2005-10-03 10:54 51°27.067 3°10.592 -999 214 14.3 102990 73
2005-10-03 10:55 51°27.022 3°10.571 -999 158 14.4 102980 74
2005-10-03 10:56 51°26.983 3°10.545 -999 151 14.5 102980 74
2005-10-03 10:57 51°26.948 3°10.516 -999 143 14.6 102990 74
2005-10-03 10:58 51°26.917 3°10.482 -999 135 14.5 102980 74
2005-10-03 10:59 51°26.891 3°10.438 -999 125 14.5 102980 74
2005-10-03 11:00 51°26.865 3°10.387 -999 117 14.4 102990 74
2005-10-03 11:01 51°26.846 3°10.332 -999 120 14.4 102990 73
2005-10-03 11:02 51°26.83 3°10.275 -999 103 14.4 102990 74
2005-10-03 11:03 51°26.815 3°10.219 -999 99 14.4 102990 74
2005-10-03 11:04 51°26.799 3°10.161 -999 115 14.4 102980 73
2005-10-03 11:05 51°26.784 3°10.103 -999 114 14.4 102980 74
2005-10-03 11:06 51°26.769 3°10.045 -999 118 14.4 102990 74
2005-10-03 11:07 51°26.754 3°9.987 -999 124 14.4 102990 74
2005-10-03 11:08 51°26.739 3°9.93 -999 126 14.4 102980 74
2005-10-03 11:09 51°26.725 3°9.874 -999 101 14.4 102980 75
2005-10-03 11:10 51°26.712 3°9.817 -999 107 14.4 102980 74
2005-10-03 11:11 51°26.698 3°9.762 -999 104 14.4 102980 74
2005-10-03 11:12 51°26.687 3°9.707 -999 118 14.4 102980 73
2005-10-03 11:13 51°26.673 3°9.65 -999 134 14.3 102980 73
2005-10-03 11:14 51°26.66 3°9.592 -999 127 14.4 102980 74
2005-10-03 11:15 51°26.644 3°9.533 -999 126 14.4 102970 74
2005-10-03 11:16 51°26.625 3°9.476 -999 128 14.3 102980 73
2005-10-03 11:17 51°26.607 3°9.418 -999 118 14.4 102970 74
2005-10-03 11:18 51°26.589 3°9.361 -999 119 14.4 102980 74
2005-10-03 11:19 51°26.572 3°9.304 -999 124 14.4 102970 73
2005-10-03 11:20 51°26.556 3°9.246 -999 119 14.4 102960 73
2005-10-03 11:21 51°26.539 3°9.191 -999 117 14.3 102970 72
2005-10-03 11:22 51°26.522 3°9.136 -999 115 14.4 102970 73
2005-10-03 11:23 51°26.507 3°9.083 -999 116 14.4 102970 73
2005-10-03 11:24 51°26.493 3°9.028 -999 108 14.4 102970 73
2005-10-03 11:25 51°26.482 3°8.965 -999 100 14.4 102970 73
2005-10-03 11:26 51°26.476 3°8.893 -999 92 14.4 102960 73
2005-10-03 11:27 51°26.474 3°8.819 -999 92 14.4 102960 74
2005-10-03 11:28 51°26.475 3°8.749 -999 93 14.4 102960 73
2005-10-03 11:29 51°26.48 3°8.707 -999 108 14.4 102960 74
2005-10-03 11:30 51°26.485 3°8.692 -999 106 14.4 102960 74
2005-10-03 11:31 51°26.49 3°8.69 -999 98 14.4 102960 74
2005-10-03 11:32 51°26.491 3°8.698 -999 92 14.4 102960 74
2005-10-03 11:33 51°26.491 3°8.713 -999 82 14.4 102960 74
2005-10-03 11:34 51°26.489 3°8.733 -999 96 14.4 102960 74
2005-10-03 11:35 51°26.485 3°8.755 -999 102 14.5 102960 75
2005-10-03 11:36 51°26.48 3°8.781 -999 98 14.5 102960 73
2005-10-03 11:37 51°26.475 3°8.808 -999 108 14.5 102960 74
2005-10-03 11:38 51°26.469 3°8.838 -999 101 14.6 102960 74
2005-10-03 11:39 51°26.463 3°8.869 -999 104 14.6 102960 75
2005-10-03 11:40 51°26.457 3°8.9 -999 115 14.7 102960 75
2005-10-03 11:41 51°26.451 3°8.931 -999 114 14.6 102960 75
2005-10-03 11:42 51°26.445 3°8.964 -999 103 14.6 102960 73
2005-10-03 11:43 51°26.438 3°8.996 -999 115 14.6 102950 69
2005-10-03 11:44 51°26.43 3°9.03 -999 120 14.6 102950 70
2005-10-03 11:45 51°26.431 3°9.041 -999 97 14.6 102950 71
2005-10-03 11:46 51°26.423 3°8.997 -999 177 14.6 102950 70
2005-10-03 11:47 51°26.351 3°9.057 -999 40 14.6 102950 71
2005-10-03 11:48 51°26.34 3°9.308 -999 349 14.7 102940 70
2005-10-03 11:49 51°26.341 3°9.675 -999 340 14.7 102940 70
2005-10-03 11:50 51°26.34 3°10.055 -999 346 14.8 102940 70
2005-10-03 11:51 51°26.323 3°10.431 -999 341 14.8 102930 70
2005-10-03 11:52 51°26.194 3°10.739 -999 333 14.8 102940 69
2005-10-03 11:53 51°26.024 3°10.988 -999 334 14.7 102940 69
2005-10-03 11:54 51°25.85 3°11.233 -999 332 14.7 102940 69
2005-10-03 11:55 51°25.677 3°11.477 -999 327 14.6 102930 70
2005-10-03 11:56 51°25.504 3°11.727 -999 333 14.6 102940 71
2005-10-03 11:57 51°25.334 3°11.98 -999 337 14.6 102930 72
2005-10-03 11:58 51°25.16 3°12.237 -999 330 14.5 102930 72
2005-10-03 11:59 51°24.993 3°12.491 -999 330 14.5 102940 72
2005-10-03 12:00 51°24.825 3°12.763 -999 329 14.5 102930 72
2005-10-03 12:01 51°24.663 3°13.028 -999 329 14.4 102930 71
2005-10-03 12:02 51°24.499 3°13.295 -999 327 14.5 102930 73
2005-10-03 12:03 51°24.336 3°13.573 -999 321 14.4 102930 72
2005-10-03 12:04 51°24.173 3°13.857 -999 331 14.4 102930 73
2005-10-03 12:05 51°24.063 3°14.198 -999 347 14.4 102920 73
2005-10-03 12:06 51°24.059 3°14.605 -999 350 14.5 102920 72
2005-10-03 12:07 51°24.057 3°15.019 -999 344 14.5 102910 73
2005-10-03 12:08 51°24.049 3°15.42 -999 337 14.6 102920 73
2005-10-03 12:09 51°24.04 3°15.825 -999 341 14.7 102910 73
2005-10-03 12:10 51°24.033 3°16.233 -999 340 14.7 102910 72
2005-10-03 12:11 51°24.004 3°16.638 -999 342 14.7 102910 72
2005-10-03 12:12 51°23.961 3°17.047 -999 338 14.7 102910 72
2005-10-03 12:13 51°23.89 3°17.428 -999 322 14.7 102910 71
2005-10-03 12:14 51°23.805 3°17.811 -999 328 14.6 102910 71
2005-10-03 12:15 51°23.738 3°18.149 -999 321 14.6 102920 71
2005-10-03 12:16 51°23.7 3°18.375 -999 228 14.7 102930 71
2005-10-03 12:17 51°23.69 3°18.532 -999 313 14.7 102930 70
2005-10-03 12:18 51°23.691 3°18.665 -999 307 14.8 102930 69
2005-10-03 12:19 51°23.692 3°18.776 -999 305 14.9 102920 70
2005-10-03 12:20 51°23.693 3°18.873 -999 301 14.9 102930 69
2005-10-03 12:21 51°23.694 3°18.971 -999 303 15 102930 69
2005-10-03 12:22 51°23.693 3°19.072 -999 302 15 102920 68
2005-10-03 12:23 51°23.689 3°19.186 -999 308 15.1 102930 68
2005-10-03 12:24 51°23.687 3°19.317 -999 305 15.1 102920 68
2005-10-03 12:25 51°23.682 3°19.436 -999 299 15 102930 67
2005-10-03 12:26 51°23.677 3°19.542 -999 297 15 102930 67
2005-10-03 12:27 51°23.674 3°19.639 -999 292 15 102930 66
2005-10-03 12:28 51°23.673 3°19.733 -999 310 15 102930 67
2005-10-03 12:29 51°23.674 3°19.825 -999 302 15 102930 66
2005-10-03 12:30 51°23.675 3°19.914 -999 301 15 102930 66
2005-10-03 12:31 51°23.674 3°19.998 -999 292 15 102930 67
2005-10-03 12:32 51°23.674 3°20.086 -999 297 15 102930 69
2005-10-03 12:33 51°23.675 3°20.17 -999 297 15 102930 69
2005-10-03 12:34 51°23.676 3°20.255 -999 303 15 102930 69
2005-10-03 12:35 51°23.677 3°20.341 -999 288 15 102930 70
2005-10-03 12:36 51°23.677 3°20.425 -999 287 15 102930 71
2005-10-03 12:37 51°23.676 3°20.511 -999 287 15 102930 71
2005-10-03 12:38 51°23.672 3°20.595 -999 285 15 102930 70
2005-10-03 12:39 51°23.668 3°20.681 -999 285 14.9 102920 68
2005-10-03 12:40 51°23.664 3°20.766 -999 292 14.9 102930 68
2005-10-03 12:41 51°23.661 3°20.85 -999 293 14.9 102930 68
2005-10-03 12:42 51°23.656 3°20.929 -999 275 14.9 102920 70
2005-10-03 12:43 51°23.653 3°21.008 -999 288 14.9 102930 70
2005-10-03 12:44 51°23.65 3°21.087 -999 280 14.9 102920 70
2005-10-03 12:45 51°23.646 3°21.165 -999 289 14.9 102920 70
2005-10-03 12:46 51°23.643 3°21.242 -999 291 14.9 102920 70
2005-10-03 12:47 51°23.639 3°21.315 -999 281 14.9 102920 71
2005-10-03 12:48 51°23.636 3°21.386 -999 283 14.9 102930 71
2005-10-03 12:49 51°23.633 3°21.454 -999 282 14.9 102930 70
2005-10-03 12:50 51°23.631 3°21.517 -999 285 14.9 102930 71
2005-10-03 12:51 51°23.629 3°21.585 -999 277 14.9 102930 70
2005-10-03 12:52 51°23.623 3°21.673 -999 290 14.9 102930 71
2005-10-03 12:53 51°23.614 3°21.772 -999 296 14.9 102920 71
2005-10-03 12:54 51°23.604 3°21.884 -999 287 15 102930 72
2005-10-03 12:55 51°23.586 3°21.994 -999 250 15 102920 72
2005-10-03 12:56 51°23.508 3°22.016 -999 140 14.9 102930 71
2005-10-03 12:57 51°23.47 3°21.991 -999 135 15 102930 71
2005-10-03 12:58 51°23.452 3°21.946 -999 91 14.9 102930 72
2005-10-03 12:59 51°23.452 3°21.765 -999 62 14.8 102930 71
2005-10-03 13:00 51°23.459 3°21.562 -999 70 14.7 102920 72
2005-10-03 13:01 51°23.472 3°21.461 -999 82 14.7 102920 72
2005-10-03 13:02 51°23.473 3°21.392 -999 95 14.6 102920 73
2005-10-03 13:03 51°23.468 3°21.323 -999 97 14.7 102930 73
2005-10-03 13:04 51°23.466 3°21.253 -999 92 14.7 102920 72
2005-10-03 13:05 51°23.461 3°21.184 -999 98 14.7 102920 72
2005-10-03 13:06 51°23.457 3°21.113 -999 97 14.6 102920 72
2005-10-03 13:07 51°23.454 3°21.04 -999 90 14.7 102920 72
2005-10-03 13:08 51°23.451 3°20.966 -999 97 14.6 102920 71
2005-10-03 13:09 51°23.455 3°20.892 -999 86 14.6 102920 71
2005-10-03 13:10 51°23.461 3°20.826 -999 94 14.6 102920 72
2005-10-03 13:11 51°23.467 3°20.763 -999 84 14.7 102920 73
2005-10-03 13:12 51°23.472 3°20.703 -999 87 14.6 102920 72
2005-10-03 13:13 51°23.478 3°20.639 -999 88 14.6 102920 72
2005-10-03 13:14 51°23.481 3°20.574 -999 87 14.6 102920 73
2005-10-03 13:15 51°23.484 3°20.508 -999 99 14.6 102920 73
2005-10-03 13:16 51°23.489 3°20.439 -999 88 14.6 102920 72
2005-10-03 13:17 51°23.495 3°20.37 -999 93 14.7 102920 74
2005-10-03 13:18 51°23.499 3°20.3 -999 97 14.7 102920 73
2005-10-03 13:19 51°23.504 3°20.232 -999 95 14.6 102920 71
2005-10-03 13:20 51°23.509 3°20.165 -999 97 14.6 102920 71
2005-10-03 13:21 51°23.513 3°20.099 -999 97 14.6 102920 71
2005-10-03 13:22 51°23.515 3°20.033 -999 99 14.6 102920 70
2005-10-03 13:23 51°23.515 3°19.97 -999 108 14.6 102920 71
2005-10-03 13:24 51°23.514 3°19.906 -999 114 14.6 102930 70
2005-10-03 13:25 51°23.513 3°19.841 -999 104 14.7 102930 71
2005-10-03 13:26 51°23.512 3°19.775 -999 112 14.6 102920 70
2005-10-03 13:27 51°23.511 3°19.711 -999 106 14.6 102930 70
2005-10-03 13:28 51°23.51 3°19.647 -999 105 14.6 102920 71
2005-10-03 13:29 51°23.51 3°19.583 -999 102 14.6 102930 71
2005-10-03 13:30 51°23.509 3°19.518 -999 108 14.6 102930 71
2005-10-03 13:31 51°23.51 3°19.453 -999 105 14.6 102920 71
2005-10-03 13:32 51°23.509 3°19.381 -999 98 14.7 102920 73
2005-10-03 13:33 51°23.509 3°19.308 -999 102 14.7 102930 73
2005-10-03 13:34 51°23.509 3°19.233 -999 105 14.6 102930 72
2005-10-03 13:35 51°23.51 3°19.166 -999 96 14.6 102930 73
2005-10-03 13:36 51°23.51 3°19.104 -999 113 14.6 102930 72
2005-10-03 13:37 51°23.508 3°19.073 -999 122 14.6 102930 70
2005-10-03 13:38 51°23.498 3°19.047 -999 155 14.6 102930 70
2005-10-03 13:39 51°23.477 3°19.061 -999 217 14.7 102940 70
2005-10-03 13:40 51°23.475 3°19.093 -999 244 14.6 102940 69
2005-10-03 13:41 51°23.473 3°19.128 -999 244 14.7 102930 72
2005-10-03 13:42 51°23.472 3°19.165 -999 265 14.7 102930 71
2005-10-03 13:43 51°23.47 3°19.202 -999 262 14.6 102930 70
2005-10-03 13:44 51°23.468 3°19.236 -999 260 14.6 102930 70
2005-10-03 13:45 51°23.466 3°19.27 -999 264 14.6 102930 69
2005-10-03 13:46 51°23.458 3°19.313 -999 268 14.6 102930 70
2005-10-03 13:46 51°23.432 3°19.364 -999 255 14.6 102930 71
2005-10-03 13:47 51°23.33 3°19.345 -999 95 14.7 102930 71
2005-10-03 13:48 51°23.27 3°19.131 -999 69 14.8 102920 72
2005-10-03 13:49 51°23.237 3°18.863 -999 62 14.6 102920 70
2005-10-03 13:50 51°23.2 3°18.551 -999 55 14.6 102910 70
2005-10-03 13:51 51°23.162 3°18.236 -999 54 14.5 102920 69
2005-10-03 13:52 51°23.126 3°17.922 -999 52 14.6 102920 70
2005-10-03 13:53 51°23.088 3°17.606 -999 50 14.5 102920 70
2005-10-03 13:54 51°23.052 3°17.295 -999 56 14.5 102920 69
2005-10-03 13:55 51°23.016 3°16.989 -999 52 14.6 102920 69
2005-10-03 13:56 51°22.98 3°16.679 -999 57 14.5 102920 69
2005-10-03 13:57 51°22.943 3°16.372 -999 59 14.6 102920 70
2005-10-03 13:58 51°22.902 3°16.058 -999 55 14.6 102920 70
2005-10-03 13:59 51°22.864 3°15.756 -999 64 14.5 102920 70
2005-10-03 14:00 51°22.833 3°15.446 -999 53 14.6 102920 70
2005-10-03 14:01 51°22.802 3°15.136 -999 55 14.6 102910 71
2005-10-03 14:02 51°22.771 3°14.827 -999 63 14.6 102920 70
2005-10-03 14:03 51°22.742 3°14.517 -999 57 14.6 102920 69
2005-10-03 14:04 51°22.712 3°14.21 -999 59 14.6 102920 69
2005-10-03 14:05 51°22.682 3°13.902 -999 60 14.6 102920 69
2005-10-03 14:06 51°22.65 3°13.595 -999 60 14.7 102920 69
2005-10-03 14:07 51°22.619 3°13.288 -999 56 14.6 102920 70
2005-10-03 14:08 51°22.589 3°12.979 -999 53 14.6 102920 68
2005-10-03 14:09 51°22.557 3°12.671 -999 64 14.7 102920 68
2005-10-03 14:10 51°22.479 3°12.379 -999 65 14.7 102920 68
2005-10-03 14:11 51°22.406 3°12.1 -999 60 14.7 102920 70
2005-10-03 14:12 51°22.332 3°11.818 -999 65 14.7 102930 70
2005-10-03 14:13 51°22.257 3°11.535 -999 59 14.7 102930 70
2005-10-03 14:14 51°22.184 3°11.247 -999 57 14.6 102930 69
2005-10-03 14:15 51°22.114 3°10.956 -999 60 14.7 102930 70
2005-10-03 14:16 51°22.041 3°10.662 -999 55 14.7 102930 71
2005-10-03 14:17 51°21.969 3°10.362 -999 52 14.6 102930 71
2005-10-03 14:18 51°21.9 3°10.068 -999 56 14.6 102930 70
2005-10-03 14:19 51°21.831 3°9.762 -999 57 14.6 102930 69
2005-10-03 14:20 51°21.759 3°9.469 -999 64 14.7 102930 71
2005-10-03 14:21 51°21.691 3°9.164 -999 56 14.6 102930 70
2005-10-03 14:22 51°21.623 3°8.873 -999 50 14.7 102930 70
2005-10-03 14:23 51°21.555 3°8.576 -999 62 14.7 102930 70
2005-10-03 14:24 51°21.488 3°8.275 -999 64 14.7 102930 70
2005-10-03 14:25 51°21.419 3°7.976 -999 64 14.7 102930 70
2005-10-03 14:26 51°21.343 3°7.677 -999 61 14.7 102930 70
2005-10-03 14:27 51°21.269 3°7.392 -999 63 14.8 102930 71
2005-10-03 14:28 51°21.214 3°7.238 -999 148 14.7 102930 70
2005-10-03 14:29 51°21.182 3°7.236 -999 234 14.9 102930 71
2005-10-03 14:30 51°21.181 3°7.263 -999 255 14.9 102930 69
2005-10-03 14:31 51°21.183 3°7.29 -999 263 15 102930 69
2005-10-03 14:32 51°21.179 3°7.33 -999 245 15 102930 68
2005-10-03 14:33 51°21.133 3°7.335 -999 133 15 102930 68
2005-10-03 14:34 51°21.128 3°7.241 -999 98 15 102930 68
2005-10-03 14:35 51°21.127 3°7.144 -999 116 15 102930 69
2005-10-03 14:36 51°21.12 3°7.055 -999 111 15 102930 70
2005-10-03 14:37 51°21.114 3°6.965 -999 115 15 102930 70
2005-10-03 14:38 51°21.11 3°6.882 -999 108 15.1 102930 71
2005-10-03 14:39 51°21.1 3°6.804 -999 123 15 102930 69
2005-10-03 14:40 51°21.09 3°6.726 -999 118 15 102920 70
2005-10-03 14:41 51°21.079 3°6.647 -999 128 15 102920 69
2005-10-03 14:42 51°21.069 3°6.567 -999 118 15 102920 69
2005-10-03 14:43 51°21.058 3°6.49 -999 116 15 102920 70
2005-10-03 14:44 51°21.043 3°6.414 -999 129 15 102920 69
2005-10-03 14:45 51°21.027 3°6.338 -999 127 15 102920 70
2005-10-03 14:46 51°21.01 3°6.262 -999 131 15.1 102920 70
2005-10-03 14:47 51°20.992 3°6.186 -999 118 15.1 102920 70
2005-10-03 14:48 51°20.975 3°6.11 -999 123 15.1 102920 70
2005-10-03 14:49 51°20.958 3°6.036 -999 145 15.1 102920 69
2005-10-03 14:50 51°20.943 3°5.961 -999 140 15.1 102920 69
2005-10-03 14:51 51°20.928 3°5.883 -999 136 15.1 102920 69
2005-10-03 14:52 51°20.912 3°5.807 -999 139 15 102920 68
2005-10-03 14:53 51°20.897 3°5.731 -999 137 15 102920 68
2005-10-03 14:54 51°20.88 3°5.657 -999 146 15 102930 68
2005-10-03 14:55 51°20.865 3°5.582 -999 146 15 102930 68
2005-10-03 14:56 51°20.849 3°5.508 -999 147 15 102930 68
2005-10-03 14:57 51°20.834 3°5.432 -999 138 15 102930 69
2005-10-03 14:58 51°20.818 3°5.355 -999 142 15 102920 69
2005-10-03 14:59 51°20.803 3°5.28 -999 136 15 102930 70
2005-10-03 15:00 51°20.787 3°5.205 -999 137 15 102930 69
2005-10-03 15:01 51°20.772 3°5.129 -999 131 15 102930 70
2005-10-03 15:02 51°20.757 3°5.052 -999 137 15 102930 69
2005-10-03 15:03 51°20.742 3°4.978 -999 135 15 102930 68
2005-10-03 15:04 51°20.726 3°4.901 -999 141 15 102930 69
2005-10-03 15:05 51°20.711 3°4.826 -999 131 15 102930 70
2005-10-03 15:06 51°20.696 3°4.75 -999 144 15 102930 67
2005-10-03 15:07 51°20.678 3°4.674 -999 150 15 102940 67
2005-10-03 15:08 51°20.66 3°4.6 -999 151 15 102940 68
2005-10-03 15:09 51°20.641 3°4.525 -999 144 15 102940 69
2005-10-03 15:10 51°20.631 3°4.448 -999 148 15 102930 68
2005-10-03 15:11 51°20.618 3°4.346 -999 134 14.9 102940 68
2005-10-03 15:12 51°20.614 3°4.257 -999 130 15 102930 69
2005-10-03 15:13 51°20.622 3°4.199 -999 116 15 102940 70
2005-10-03 15:14 51°20.625 3°4.118 -999 143 15 102940 71
2005-10-03 15:15 51°20.606 3°4.023 -999 145 15 102940 69
2005-10-03 15:16 51°20.589 3°3.927 -999 145 15 102940 69
2005-10-03 15:17 51°20.582 3°3.837 -999 141 15 102930 70
2005-10-03 15:18 51°20.574 3°3.758 -999 140 15 102930 71
2005-10-03 15:19 51°20.562 3°3.682 -999 129 15 102930 69
2005-10-03 15:20 51°20.547 3°3.606 -999 135 15 102940 69
2005-10-03 15:21 51°20.532 3°3.531 -999 139 15 102940 69
2005-10-03 15:22 51°20.516 3°3.455 -999 145 15 102930 69
2005-10-03 15:23 51°20.5 3°3.378 -999 141 15 102940 69
2005-10-03 15:24 51°20.482 3°3.305 -999 131 15 102940 70
2005-10-03 15:25 51°20.466 3°3.226 -999 135 15 102940 69
2005-10-03 15:26 51°20.45 3°3.148 -999 148 15 102940 69
2005-10-03 15:27 51°20.434 3°3.071 -999 147 15 102940 70
2005-10-03 15:28 51°20.418 3°2.993 -999 124 15 102930 70
2005-10-03 15:29 51°20.402 3°2.917 -999 138 15 102940 68
2005-10-03 15:30 51°20.386 3°2.838 -999 136 15 102940 68
2005-10-03 15:31 51°20.37 3°2.76 -999 146 15 102940 68
2005-10-03 15:32 51°20.352 3°2.68 -999 141 15 102940 68
2005-10-03 15:33 51°20.335 3°2.599 -999 141 15 102940 68
2005-10-03 15:34 51°20.318 3°2.518 -999 140 15 102940 67
2005-10-03 15:35 51°20.301 3°2.436 -999 43 15 102940 68
2005-10-03 15:36 51°20.283 3°2.354 -999 130 15 102940 68
2005-10-03 15:37 51°20.269 3°2.276 -999 140 15.1 102940 70
2005-10-03 15:38 51°20.254 3°2.199 -999 153 15.1 102940 70
2005-10-03 15:39 51°20.239 3°2.124 -999 141 15.1 102940 69
2005-10-03 15:40 51°20.226 3°2.047 -999 146 15.1 102940 69
2005-10-03 15:41 51°20.21 3°1.972 -999 145 15.2 102940 70
2005-10-03 15:42 51°20.191 3°1.898 -999 136 15.2 102940 71
2005-10-03 15:43 51°20.172 3°1.824 -999 146 15.2 102940 71
2005-10-03 15:44 51°20.154 3°1.751 -999 144 15.2 102940 69
2005-10-03 15:45 51°20.134 3°1.675 -999 138 15.1 102940 70
2005-10-03 15:46 51°20.114 3°1.597 -999 139 15.1 102940 69
2005-10-03 15:47 51°20.098 3°1.52 -999 140 15 102950 68
2005-10-03 15:48 51°20.079 3°1.444 -999 133 15.1 102950 69
2005-10-03 15:49 51°20.061 3°1.369 -999 138 15.1 102940 70
2005-10-03 15:50 51°20.027 3°1.261 -999 129 15.1 102950 69
2005-10-03 15:51 51°19.969 3°1.101 -999 128 15.1 102950 69
2005-10-03 15:52 51°19.933 3°0.994 -999 142 15.1 102950 68
2005-10-03 15:53 51°19.91 3°0.924 -999 169 15.1 102940 68
2005-10-03 15:54 51°19.901 3°0.89 -999 175 15.1 102950 68
2005-10-03 15:55 51°19.899 3°0.871 -999 177 15 102950 67
2005-10-03 15:56 51°19.896 3°0.85 -999 160 15 102940 68
2005-10-03 15:57 51°19.893 3°0.828 -999 155 15.1 102950 71
2005-10-03 15:58 51°19.89 3°0.807 -999 146 15 102950 69
2005-10-03 15:59 51°19.889 3°0.783 -999 135 15 102950 69
2005-10-03 16:00 51°19.889 3°0.761 -999 122 15 102950 69
2005-10-03 16:01 51°19.89 3°0.739 -999 122 15.1 102950 70
2005-10-03 16:02 51°19.893 3°0.718 -999 118 15 102950 69
2005-10-03 16:03 51°19.895 3°0.698 -999 110 15 102950 68
2005-10-03 16:04 51°19.898 3°0.678 -999 116 15 102960 68
2005-10-03 16:05 51°19.905 3°0.634 -999 98 15 102950 68
2005-10-03 16:06 51°19.899 3°0.488 -999 88 15.1 102960 68
2005-10-03 16:07 51°19.824 3°0.206 -999 61 15.1 102960 69
2005-10-03 16:08 51°19.746 2°59.893 -999 51 15.1 102960 69
2005-10-03 16:09 51°19.667 2°59.571 -999 60 15 102950 68
2005-10-03 16:10 51°19.586 2°59.251 -999 60 15.1 102960 70
2005-10-03 16:11 51°19.506 2°58.926 -999 55 15.1 102960 70
2005-10-03 16:12 51°19.417 2°58.618 -999 56 15 102960 70
2005-10-03 16:13 51°19.322 2°58.314 -999 69 15 102960 71
2005-10-03 16:14 51°19.225 2°58.011 -999 71 15.1 102960 71
2005-10-03 16:15 51°19.127 2°57.708 -999 63 15.1 102960 72
2005-10-03 16:16 51°19.023 2°57.41 -999 72 15 102960 71
2005-10-03 16:17 51°18.909 2°57.121 -999 62 15 102970 70
2005-10-03 16:18 51°18.791 2°56.836 -999 48 15 102960 71
2005-10-03 16:19 51°18.666 2°56.556 -999 65 15 102960 69
2005-10-03 16:20 51°18.544 2°56.278 -999 53 15 102970 69
2005-10-03 16:21 51°18.417 2°55.994 -999 52 15 102970 68
2005-10-03 16:22 51°18.287 2°55.707 -999 53 15.1 102970 69
2005-10-03 16:23 51°18.161 2°55.431 -999 56 15.1 102980 69
2005-10-03 16:24 51°18.029 2°55.145 -999 40 15.1 102970 69
2005-10-03 16:25 51°17.901 2°54.866 -999 61 15.1 102970 71
2005-10-03 16:26 51°17.776 2°54.583 -999 65 15.1 102970 70
2005-10-03 16:27 51°17.646 2°54.306 -999 67 15 102980 69
2005-10-03 16:28 51°17.516 2°54.03 -999 56 15.1 102970 68
2005-10-03 16:29 51°17.382 2°53.761 -999 70 15.1 102980 69
2005-10-03 16:30 51°17.241 2°53.506 -999 51 15.1 102980 68
2005-10-03 16:31 51°17.055 2°53.332 -999 330 15.1 102980 69
2005-10-03 16:32 51°16.849 2°53.263 -999 315 15.2 102980 70
2005-10-03 16:33 51°16.632 2°53.249 -999 306 15.2 102980 69
2005-10-03 16:34 51°16.417 2°53.263 -999 311 15.2 102980 68
2005-10-03 16:35 51°16.206 2°53.288 -999 321 15.3 102980 69
2005-10-03 16:36 51°15.992 2°53.349 -999 319 15.3 102980 70
2005-10-03 16:37 51°15.791 2°53.452 -999 43 15.3 102970 69
2005-10-03 16:38 51°15.591 2°53.571 -999 228 15.2 102980 69
2005-10-03 16:39 51°15.401 2°53.731 -999 314 15.2 102970 69
2005-10-03 16:40 51°15.218 2°53.9 -999 319 15.2 102970 70
2005-10-03 16:41 51°15.044 2°54.079 -999 227 15.2 102980 69
2005-10-03 16:42 51°14.88 2°54.274 -999 313 15.1 102970 70
2005-10-03 16:43 51°14.717 2°54.475 -999 321 15.1 102970 70
2005-10-03 16:44 51°14.567 2°54.68 -999 318 15.1 102970 70
2005-10-03 16:45 51°14.437 2°54.889 -999 42 15.1 102970 70
2005-10-03 16:46 51°14.329 2°55.126 -999 330 15.1 102970 70
2005-10-03 16:47 51°14.217 2°55.327 -999 307 15.1 102970 71
2005-10-03 16:48 51°14.099 2°55.434 -999 309 15.1 102980 71
2005-10-03 16:49 51°13.976 2°55.521 -999 318 15 102990 71
2005-10-03 16:50 51°13.855 2°55.609 -999 311 15 102990 71
2005-10-03 16:51 51°13.749 2°55.721 -999 321 15 102990 70
2005-10-03 16:52 51°13.685 2°55.838 -999 276 14.9 103000 69
2005-10-03 16:53 51°13.64 2°55.942 -999 330 15 103000 68
2005-10-03 16:54 51°13.614 2°56.044 -999 307 15 103000 68
2005-10-03 16:55 51°13.604 2°56.09 -999 275 15 103000 68
2005-10-03 16:56 51°13.6 2°56.095 -999 291 15 103000 68